Weather History for KHLG - October, 2012

Change the Weather History Date:

Tuesday, October 16, 2012

  Actual Average Record
Temperature  
Mean Temperature 51 °F 53 °F  
Max Temperature 58 °F 63 °F 75 °F (2007)
Min Temperature 43 °F 44 °F 38 °F (2006)
Degree Days  
Heating Degree Days 14 12  
Month to date heating degree days 185 156  
Since 1 July heating degree days 310 257  
Cooling Degree Days 0    
Month to date cooling degree days 9  
Year to date cooling degree days 983  
Moisture  
Dew Point 39 °F    
Average Humidity 70    
Maximum Humidity 93    
Minimum Humidity 47    
Precipitation  
Precipitation 0.00 in 0.09 in 0.80 in (2002)
Month to date precipitation 0.47 1.34  
Sea Level Pressure  
Sea Level Pressure 29.94 in    
Wind  
Wind Speed 5 mph (WSW)    
Max Wind Speed 14 mph    
Max Gust Speed 18 mph    
Visibility 10 miles    
Events      
T = Trace of Precipitation, MM = Missing Value Source: NWS Daily Summary

Daily Weather History Graph

Daily Weather History Graph

Search for Another Location

Airport or City:

Trip Planner

Search our weather history database for the weather conditions in past years. The results will help you decide how hot, cold, wet, or windy it might be!

Date:

Astronomy

Oct. 16, 2012 Rise Set
Actual Time 7:34 AM EDT 6:40 PM EDT
Civil Twilight 7:07 AM EDT 7:08 PM EDT
Nautical Twilight 6:35 AM EDT 7:39 PM EDT
Astronomical Twilight 6:04 AM EDT 8:10 PM EDT
Moon 8:55 AM EDT (10/16) 7:23 PM EDT (10/16)
Length of Visible Light 12h 00m
Length of Day
11h 05m
New Moon, 2% of the Moon is Illuminated
Oct 16
New Moon
Oct 21
First Quarter
Oct 29
Full
Nov 6
Last Quarter
Nov 13
New

Hourly Weather History & Observations

Time (EDT) Temp. Windchill Dew Point Humidity Pressure Visibility Wind Dir Wind Speed Gust Speed Precip Events Conditions
12:25 AM 48.2 °F - 44.6 °F 87% 29.91 in 10.0 mi West 5.8 mph - N/A   Overcast
12:37 AM 48.2 °F - 44.6 °F 87% 29.91 in 10.0 mi West 8.1 mph - N/A   Overcast
12:53 AM 48.0 °F - 44.1 °F 86% 29.92 in 10.0 mi WNW 8.1 mph - N/A   Overcast
1:53 AM 46.9 °F - 44.1 °F 90% 29.93 in 10.0 mi WNW 4.6 mph - N/A   Overcast
2:53 AM 46.9 °F - 42.1 °F 83% 29.94 in 10.0 mi WNW 8.1 mph - N/A   Overcast
3:53 AM 45.0 °F 41.8 °F 39.9 °F 82% 29.94 in 10.0 mi WNW 5.8 mph - N/A   Partly Cloudy
4:53 AM 44.1 °F 42.5 °F 37.9 °F 79% 29.95 in 10.0 mi West 3.5 mph - N/A   Clear
6:53 AM 43.0 °F 38.8 °F 37.9 °F 82% 29.98 in 10.0 mi West 6.9 mph - N/A   Overcast
8:53 AM 45.0 °F - 39.9 °F 82% 30.01 in 10.0 mi Calm Calm - N/A   Overcast
9:53 AM 46.9 °F - 39.0 °F 74% 30.01 in 10.0 mi WSW 4.6 mph - N/A   Overcast
10:53 AM 48.9 °F - 36.0 °F 61% 30.01 in 10.0 mi West 8.1 mph - N/A   Overcast
11:53 AM 50.0 °F - 37.0 °F 61% 30.01 in 10.0 mi WSW 9.2 mph - N/A   Mostly Cloudy
12:53 PM 51.1 °F - 36.0 °F 56% 30.00 in 10.0 mi West 4.6 mph - N/A   Mostly Cloudy
1:53 PM 54.0 °F - 37.0 °F 53% 29.97 in 10.0 mi WSW 6.9 mph - N/A   Mostly Cloudy
2:53 PM 55.9 °F - 37.0 °F 49% 29.95 in 10.0 mi South 8.1 mph - N/A   Partly Cloudy
3:53 PM 57.0 °F - 37.0 °F 47% 29.94 in 10.0 mi West 5.8 mph - N/A   Clear
4:53 PM 57.9 °F - 37.0 °F 46% 29.90 in 10.0 mi West 4.6 mph - N/A   Clear
5:53 PM 57.0 °F - 37.0 °F 47% 29.91 in 10.0 mi West 6.9 mph - N/A   Clear
6:53 PM 54.0 °F - 37.0 °F 53% 29.91 in 10.0 mi Calm Calm - N/A   Clear
7:53 PM 50.0 °F - 37.9 °F 63% 29.91 in 10.0 mi SE 5.8 mph - N/A   Clear
8:53 PM 48.9 °F - 37.9 °F 66% 29.90 in 10.0 mi SE 5.8 mph - N/A   Clear
9:53 PM 46.9 °F - 37.9 °F 71% 29.90 in 10.0 mi SSE 6.9 mph - N/A   Clear
10:53 PM 48.0 °F - 37.9 °F 68% 29.90 in 10.0 mi SE 4.6 mph - N/A   Clear
11:53 PM 46.9 °F - 37.9 °F 71% 29.91 in 10.0 mi SE 3.5 mph - N/A   Clear